COSMOS 2251 DEB, 33914

Orbit data source: Space-Track

COSMOS 2251 DEB, 33914 is space debris in LEO originally from a launch on Wed, 16 Jun 1993 UTC launched from the Plesetsk Missile And Space Complex (PKMTR). The debris from Iridium 33, an American commercial communications satellite, has been tracked extensively since its accidental collision with the defunct Russian satellite Cosmos 2251 in 2009. This event, occurring at high speed in low Earth orbit (LEO), generated thousands of pieces of space debris, significantly increasing the risk of further collisions. The Iridium 33 debris cloud has impacted space traffic management and orbital debris mitigation strategies, making it a subject of ongoing study in space situational awareness.

Loading next visibility...
Identifier
33914, 1993-036DT
Orbit
LEO
Country
Flag of CISCIS
Related business
Manufacturer
Unknown
Mission
Spacecraft
Bus & Motor
Unknown
Mass
Unknown
Launch date (UTC)
1993-06-16 (33 years ago)
Launch vehicle
Unknown
Launch site
Plesetsk Missile And Space Complex (PKMTR)
Object type
Payload
Rocket body
Debris
Shape & HBR
Unknown shape, 0.2 m
Radar Cross Section
Medium (>0.1 m² and <1 m²)

Expand to show TLE details & history
Last TLE update: 11 hours ago

TLE from 11 hours ago
0 COSMOS 2251 DEB
1 33914U 93036DT  25355.11367384  .00000197  00000-0  17241-3 0  9999
2 33914  74.0911   1.2943 0300832 102.3031 328.4384 13.71989240841963
Epoch: 2025-12-21T02:43Z
TLE epoch observation values (Epoch: 2025-12-21T02:43:41.419Z)
Latitude
63.87807°
Longitude
-94.23871°
Altitude
816.014 km
Speed
7.546 km/s
True Right ascension
02h 26m 27s
True Declination
63° 44' 35"
Sunlit
Object was in full shadow at epoch
Visualization orbit readout
Latitude
Unknown
Longitude
Unknown
Altitude
Unknown
Speed
Unknown
Apparent Right ascension
Unknown
Apparent Declination
Unknown
Sunlit
N/A
Visualization observer readout
Local Sidereal Time
12:49:44
Azimuth
Unknown
Elevation
Unknown
Doppler factor
Unknown
Orbital elements
Apogee altitude
1,211.787 km
Perigee altitude
768.465 km
Semi-major axis
7,368.263 km
Eccentricity
0.03008
Inclination
74.0911°
RAAN
1.2943°
Arg. of periapsis
102.3031°
True anomaly
326.57473°
Mean anomaly
328.4384°
Eccentric anomaly
327.51261°
Mean motion
3.43159 °/min
Orbital period
104.91 mins
BSTAR
0.00017241
Loading maneuver chart data...
Computing Atmospheric mass density...
Loading historical data...
Loading historical data...
Loading historical data...
Loading historical data...
Loading historical data...
Loading historical data...
Loading historical data...

Documentation

Showing up to 5 results
|